User: anonymous   Login
Location: Griffin Ranch
(33.6186°N, 110.6622°W)
Time: 17:18:47
(UTC-07:00)
Language:

Cosmos 1812 - Orbit

View from above orbital plane
View from above orbital plane
View from above satellite
View from above satellite

Ground track
Ground track

The orbit data is extracted from the following two-line orbital elements,

1 17295U 87003A   14297.99408259  .00007542  00000-0  46289-3 0  4547
2 17295 082.5166 013.3423 0002847 202.1886 212.2705 15.09977326512879
Epoch (UTC): 24 October 2014 23:51:28
Eccentricity: 0.0002847
inclination: 82.5166°
perigee height: 534 km
apogee height: 538 km
right ascension of ascending node: 13.3423°
argument of perigee: 202.1886°
revolutions per day: 15.09977326
mean anomaly at epoch: 212.2705°
orbit number at epoch: 51287

The dashed part of the orbit path shows where the satellite is in the earth's shadow,  

DLR